Regional Weather Roundup
Issued by NWS

Home | Current Version | Previous Version | Graphics & Text | Print | Product List | Glossary On
Versions: 1 2 3 4 5 6 7 8 9 10 11 12 13 14 15 16 17 18 19 20 21 22 23 24 25 26 27 28 29 30 31 32 33 34 35 36 37 38 39 40 41 42 43 44 45 46 47 48 49 50
000
ASUS43 KLOT 291502
RWRIL

ILLINOIS REGIONAL WEATHER ROUNDUP
NATIONAL WEATHER SERVICE CHICAGO/ROMEOVILLE IL
1000 AM CDT SUN MAR 29 2015

NOTE: "FAIR" INDICATES FEW OR NO CLOUDS BELOW 12,000 FEET WITH NO
SIGNIFICANT WEATHER AND/OR OBSTRUCTIONS TO VISIBILITY.

* THESE STATIONS ARE NOT UNDER NWS QUALITY CONTROL. THEY ALSO MAY NOT
  REPORT WEATHER SUCH AS PRECIPITATION OR FOG.

ILZ001-002-007-009-015-016-024-291600-
NORTHWEST ILLINOIS

CITY           SKY/WX    TMP DP  RH WIND       PRES   REMARKS
MOLINE         CLOUDY    35  27  72 S22G32    29.89F WCI  23
STERLING*      CLOUDY    34  27  75 S12G25    29.95F WCI  25
$$

ILZ003-004-008-010-011-017-018-291600-
NORTH CENTRAL ILLINOIS

CITY           SKY/WX    TMP DP  RH WIND       PRES   REMARKS
ROCKFORD       LGT RAIN  33  25  72 S24G31    29.96F WCI  20
$$

ILZ005-006-012>014-019>023-291600-
NORTHEAST ILLINOIS

CITY           SKY/WX    TMP DP  RH WIND       PRES   REMARKS
CHICAGO-OHARE  CLOUDY    36  17  46 S20G33    30.04F WCI  25
CHICAGO-MIDWAY PTSUNNY   38  18  44 S18G32    30.08F WCI  28
AURORA         CLOUDY    36  20  52 S23G30    30.01F WCI  24
WAUKEGAN       PTSUNNY   37  17  44 S24G36    29.97F WCI  26
DUPAGE AIRPORT CLOUDY    37  19  48 S26G36    30.01F WCI  25
WHEELING       PTSUNNY   37  16  42 S22G31    30.04F WCI  26
NORTHERLY ISL    N/A     37  16  42 S26         N/A  WCI  25
$$

LMZ740>746-291600-
SOUTHERN LAKE MICHIGAN

STATION/POSITION SKY/WX   TEMP    WIND        PRES    VSBY  WAVE
                          AIR SEA DIR/SP/G                  HT/PER
                          (F)     (DEG/KT/KT) (MB)    (MI)  (FT/S)
HARRISON CRIB              34     180/ 27/ 33   N/A
BURNHAM HARBOR             35     180/ 12/ 21   N/A
CALUMET HARBOR             34     160/ 17/ 25 1018.0F
BURNS HARBOR               34     180/ 18     1020.7F
MICHIGAN CITY              32     160/ 17/ 23   N/A
$$

ILZ025>027-034>036-040-047-049-050-058-095>099-291600-
WEST-CENTRAL ILLINOIS

CITY           SKY/WX    TMP DP  RH WIND       PRES   REMARKS
QUINCY         CLOUDY    37  27  67 S18G28    30.00F WCI  27
$$

ILZ028>032-037-038-041>044-048-051>054-059>061-291600-
CENTRAL ILLINOIS

CITY           SKY/WX    TMP DP  RH WIND       PRES   REMARKS
DECATUR        MOSUNNY   40  19  43 S23G35    30.13F
PEORIA         LGT RAIN  36  25  64 S22G32    30.03F WCI  25
SPRINGFIELD    PTSUNNY   40  20  44 S25G37    30.11F
TAYLORVILLE    NOT AVBL
$$

ILZ033-039-045-046-055>057-062-063-291600-
EAST-CENTRAL ILLINOIS

CITY           SKY/WX    TMP DP  RH WIND       PRES   REMARKS
CHAMPAIGN      MOSUNNY   38  23  55 S24G33    30.14F WCI  27
MATTOON        MOSUNNY   40  21  46 S14G26    30.18F
$$

ILZ079-100>102-291600-
SOUTHWEST ILLINOIS

CITY           SKY/WX    TMP DP  RH WIND       PRES   REMARKS
BELLEVILLE     SUNNY     44  22  40 S13G23    30.15F
CAHOKIA*       MOSUNNY   44  22  41 S14G26    30.14F
$$

ILZ064>066-069>071-074>076-080>082-084>086-088>090-092>094-291600-
SOUTH-CENTRAL ILLINOIS

CITY           SKY/WX    TMP DP  RH WIND       PRES   REMARKS
CARBONDALE     SUNNY     44  21  40 S16       30.22F
MARION         SUNNY     45  21  39 S14       30.23F
MT. VERNON     SUNNY     43  23  45 S15G23    30.22F
$$

ILZ067-068-072-073-078-083-087-091-291600-
SOUTHEAST ILLINOIS

CITY           SKY/WX    TMP DP  RH WIND       PRES   REMARKS
LAWRENCEVILLE  SUNNY     41  22  46 S20       30.26R
FLORA*         SUNNY     40  25  53 S16       30.22F
$$

ABBREVIATIONS USED IN REMARKS
   TC - TEMPERATURE IN CELSIUS
  WCI - WIND CHILL INDEX
   HX - HEAT INDEX
  VSB - VISIBILITY
$$




USA.gov is the U.S. government's official web portal to all federal, state and local government web resources and services.